Sigfox identifier Datetime Temperature Humidity SNR
002EF168 2019-04-23 14:57:00 15.6 37 23.5
002EF168 2019-04-23 14:25:49 15.6 36 23.5
002EF168 2019-04-23 13:54:38 15.6 36 23.3
002EF168 2019-04-23 13:23:27 15.5 36 23
002EF168 2019-04-23 12:52:15 15.3 36 23
002EF168 2019-04-23 12:21:02 15.3 36 23.1
002EF168 2019-04-23 11:49:52 15.3 36 23
002EF168 2019-04-23 11:18:41 15.3 36 23
002EF168 2019-04-23 10:47:31 15.3 36 22.9
002EF168 2019-04-23 10:16:19 15.2 36 22.8
002EF168 2019-04-23 09:45:08 15.2 36 22.4
002EF168 2019-04-23 09:13:57 15.2 36 22.3
002EF168 2019-04-23 08:42:47 15.2 36 22
002EF168 2019-04-23 08:11:36 15.1 36 21.9
002EF168 2019-04-23 07:40:25 15.2 36 21.9
002EF168 2019-04-23 07:09:14 15.2 36 21.9
002EF168 2019-04-23 06:38:02 15.1 36 21.9
002EF168 2019-04-23 06:06:50 15.2 36 21.9
002EF168 2019-04-23 05:35:38 15.2 36 21.9
002EF168 2019-04-23 05:04:27 15.3 36 21.9
002EF168 2019-04-23 04:33:15 15.3 36 21.9
002EF168 2019-04-23 04:02:04 15.3 36 21.9
002EF168 2019-04-23 03:30:53 15.3 36 22.7
002EF168 2019-04-23 02:59:42 15.3 36 22.7
002EF168 2019-04-23 02:28:32 15.3 36 22.7
002EF168 2019-04-23 01:57:21 15.3 36 22.6
002EF168 2019-04-23 01:26:09 15.3 36 22.6
002EF168 2019-04-23 00:54:59 15.3 36 22.5
002EF168 2019-04-23 00:23:48 15.3 36 22.4
002EF168 2019-04-22 23:52:37 15.3 36 22.3
002EF168 2019-04-22 23:21:26 15.3 36 22.3
002EF168 2019-04-22 22:50:13 15.3 36 22.2
002EF168 2019-04-22 22:19:02 15.3 36 22.2
002EF168 2019-04-22 21:47:51 15.4 36 22.2
002EF168 2019-04-22 21:16:41 15.4 36 22.1
002EF168 2019-04-22 20:45:30 15.4 36 22.1
002EF168 2019-04-22 20:14:20 15.3 36 22.1
002EF168 2019-04-22 19:43:09 15.4 36 22
002EF168 2019-04-22 19:11:59 15.5 36 22.1
002EF168 2019-04-22 18:40:48 15.4 36 22.1
002EF168 2019-04-22 18:09:37 15.4 36 22.1
002EF168 2019-04-22 17:38:27 15.4 36 22.1
002EF168 2019-04-22 17:07:17 15.3 36 22.1
002EF168 2019-04-22 16:36:06 15.3 36 22
002EF168 2019-04-22 16:04:57 15.3 36 22.1
002EF168 2019-04-22 15:33:47 15.3 36 22.1
002EF168 2019-04-22 15:02:36 15.3 36 22
002EF168 2019-04-22 14:31:26 15.3 36 21.2
002EF168 2019-04-22 14:00:15 15.3 36 21.2
002EF168 2019-04-22 13:29:06 15.3 36 21
002EF168 2019-04-22 12:57:56 15.3 36 21
002EF168 2019-04-22 12:26:46 15.3 36 21
002EF168 2019-04-22 11:55:35 15.3 36 21.2
002EF168 2019-04-22 11:24:23 15.3 36 21.3
002EF168 2019-04-22 10:53:12 15.3 36 21.5
002EF168 2019-04-22 10:22:01 15.2 36 21.6
002EF168 2019-04-22 09:50:49 15.1 36 21.7
002EF168 2019-04-22 09:19:38 15.1 36 21.8
002EF168 2019-04-22 08:48:27 15.1 36 21.7
002EF168 2019-04-22 08:17:16 15.1 36 21.6
002EF168 2019-04-22 07:46:04 15.2 36 21.5
002EF168 2019-04-22 07:14:53 15.1 36 21.5
002EF168 2019-04-22 06:43:41 15.1 36 21.5
002EF168 2019-04-22 06:12:30 15.2 36 21.4
002EF168 2019-04-22 05:41:19 15.2 36 21.3
002EF168 2019-04-22 05:10:08 15.1 36 21.3
002EF168 2019-04-22 04:38:57 15.2 36 21.3
002EF168 2019-04-22 04:07:46 15.1 36 21.3
002EF168 2019-04-22 03:36:34 15.1 35 21.1
002EF168 2019-04-22 03:05:25 15.2 36 21
002EF168 2019-04-22 02:34:13 15.1 36 20.8
002EF168 2019-04-22 02:03:02 15.1 35 20.9
002EF168 2019-04-22 01:31:52 15.1 36 20.8
002EF168 2019-04-22 01:00:41 15.1 35 20.8
002EF168 2019-04-22 00:29:30 15.1 35 20.6
002EF168 2019-04-21 23:58:20 15.1 36 20.6
002EF168 2019-04-21 23:27:10 15.1 35 20.5
002EF168 2019-04-21 22:55:59 15.1 35 20.4
002EF168 2019-04-21 22:24:48 15.1 35 20.3
002EF168 2019-04-21 21:53:36 15.1 35 20.2
002EF168 2019-04-21 21:22:25 15.1 35 20.2
002EF168 2019-04-21 20:51:14 15.1 35 20.4
002EF168 2019-04-21 20:20:03 15.1 35 20.6
002EF168 2019-04-21 19:48:51 15.1 35 20.7
002EF168 2019-04-21 19:17:40 15.1 35 20.9
002EF168 2019-04-21 18:46:27 15.1 35 21
002EF168 2019-04-21 18:15:16 15.1 35 21.1
002EF168 2019-04-21 17:44:03 15.1 35 21.3
002EF168 2019-04-21 17:12:51 15.1 35 21.5
002EF168 2019-04-21 16:41:38 15.2 35 21.7
002EF168 2019-04-21 16:10:26 15.1 35 21.8
002EF168 2019-04-21 15:39:14 15.1 35 21.9
002EF168 2019-04-21 15:08:03 15.1 35 22.2
002EF168 2019-04-21 14:36:51 15.1 35 22.3
002EF168 2019-04-21 14:05:40 15.1 35 22.3
002EF168 2019-04-21 13:34:27 15.1 35 22.4
002EF168 2019-04-21 13:03:15 15.1 35 22.4
002EF168 2019-04-21 12:32:06 15.1 35 22.5
002EF168 2019-04-21 12:00:52 15.1 35 22.5
002EF168 2019-04-21 11:29:41 15.1 35 22.6
002EF168 2019-04-21 10:58:31 15.1 35 22.6
002EF168 2019-04-21 10:27:19 15.1 35 22.5
002EF168 2019-04-21 09:56:08 15.1 35 22.4
002EF168 2019-04-21 09:24:56 15.2 35 22.4
002EF168 2019-04-21 08:53:46 15.2 35 22.5
002EF168 2019-04-21 08:22:35 15.3 35 22.6
002EF168 2019-04-21 07:51:23 15.3 35 22.6
002EF168 2019-04-21 07:20:10 15.3 35 22.5
002EF168 2019-04-21 06:48:59 15.2 35 23.2
002EF168 2019-04-21 06:17:47 15.3 35 23.3
002EF168 2019-04-21 05:46:35 15.3 35 23.2
002EF168 2019-04-21 05:15:24 15.3 35 23.3
002EF168 2019-04-21 04:44:12 15.3 35 23.2
002EF168 2019-04-21 04:13:01 15.3 35 23.1
002EF168 2019-04-21 03:41:49 15.2 35 23
002EF168 2019-04-21 03:10:38 15.3 35 23
002EF168 2019-04-21 02:39:27 15.3 35 23
002EF168 2019-04-21 02:08:16 15.3 35 22.8
002EF168 2019-04-21 01:37:04 15.3 35 22.7
002EF168 2019-04-21 01:05:53 15.3 35 22.7
002EF168 2019-04-21 00:34:41 15.3 35 22.7
002EF168 2019-04-21 00:03:29 15.3 35 22.8
002EF168 2019-04-20 23:32:18 15.2 35 22.8
002EF168 2019-04-20 23:01:06 15.2 35 22.8
002EF168 2019-04-20 22:29:54 15.3 35 22.6
002EF168 2019-04-20 21:58:43 15.3 35 22.6
002EF168 2019-04-20 21:27:32 15.3 35 22.9
002EF168 2019-04-20 20:56:20 15.3 35 23
002EF168 2019-04-20 20:25:08 15.3 35 23
002EF168 2019-04-20 19:53:56 15.3 35 23
002EF168 2019-04-20 19:22:44 15.3 35 23
002EF168 2019-04-20 18:51:32 15.3 35 23
002EF168 2019-04-20 18:20:20 15.3 35 22.3
002EF168 2019-04-20 17:49:08 15.3 35 22.2
002EF168 2019-04-20 17:17:56 15.3 35 22.1
002EF168 2019-04-20 16:46:43 15.3 35 22.1
002EF168 2019-04-20 16:15:33 15.3 35 22
002EF168 2019-04-20 15:44:20 15.3 35 21.9
002EF168 2019-04-20 15:13:09 15.3 35 22
002EF168 2019-04-20 14:41:58 15.3 35 22
002EF168 2019-04-20 14:10:44 15.3 35 22
002EF168 2019-04-20 13:39:32 15.3 34 22.2
002EF168 2019-04-20 13:08:20 15.3 34 22.3
002EF168 2019-04-20 12:37:07 15.3 34 22.3
002EF168 2019-04-20 12:05:55 15.3 34 22.3
002EF168 2019-04-20 11:34:42 15.3 34 22.2
002EF168 2019-04-20 11:03:29 15.4 34 22
002EF168 2019-04-20 10:32:16 15.3 34 22
002EF168 2019-04-20 10:01:04 15.3 34 22.1
002EF168 2019-04-20 09:29:53 15.3 34 22.1
002EF168 2019-04-20 08:58:40 15.3 34 22.1
002EF168 2019-04-20 08:27:28 15.4 34 22.2
002EF168 2019-04-20 07:56:15 15.4 34 22
002EF168 2019-04-20 07:25:03 15.5 34 21.8
002EF168 2019-04-20 06:53:51 15.5 34 21.9
002EF168 2019-04-20 06:22:40 15.5 34 21.8
002EF168 2019-04-20 05:51:29 15.5 34 21.8
002EF168 2019-04-20 05:20:18 15.5 34 21.7
002EF168 2019-04-20 04:49:07 15.5 34 21.8
002EF168 2019-04-20 04:17:54 15.5 34 21.8
002EF168 2019-04-20 03:46:42 15.6 34 21.6
002EF168 2019-04-20 03:15:30 15.5 34 21.7
002EF168 2019-04-20 02:44:20 15.6 34 21.7
002EF168 2019-04-20 02:13:09 15.6 34 21.6
002EF168 2019-04-20 01:41:58 15.6 34 21.6
002EF168 2019-04-20 01:10:48 15.7 34 21.6
002EF168 2019-04-20 00:39:37 15.7 34 21.6
002EF168 2019-04-20 00:08:26 15.7 34 21.5
002EF168 2019-04-19 23:37:15 15.7 34 21.5
002EF168 2019-04-19 23:06:03 15.8 34 21.5
002EF168 2019-04-19 22:34:56 15.7 34 21.8
002EF168 2019-04-19 22:03:41 15.8 34 21.8
002EF168 2019-04-19 21:32:30 15.7 34 21.7
002EF168 2019-04-19 21:01:20 15.8 34 21.6
002EF168 2019-04-19 20:30:09 15.8 34 21.6
002EF168 2019-04-19 19:58:58 15.8 34 21.6
002EF168 2019-04-19 19:27:47 15.7 34 21.6
002EF168 2019-04-19 18:56:36 15.8 34 21.7
002EF168 2019-04-19 18:25:25 15.8 34 21.6
002EF168 2019-04-19 17:54:12 15.8 34 21.7
002EF168 2019-04-19 17:23:02 15.8 34 21.7
002EF168 2019-04-19 16:51:51 15.7 34 21.8
002EF168 2019-04-19 16:20:42 15.7 34 21.9
002EF168 2019-04-19 15:49:31 15.7 34 22
002EF168 2019-04-19 15:18:21 15.7 34 22.1
002EF168 2019-04-19 14:47:11 15.6 34 22.2
002EF168 2019-04-19 14:16:01 15.6 34 22.3
002EF168 2019-04-19 13:44:50 15.6 34 22.3
002EF168 2019-04-19 13:13:39 15.6 34 22.3
002EF168 2019-04-19 12:42:27 15.6 34 22.3
002EF168 2019-04-19 12:11:16 15.6 34 22.3
002EF168 2019-04-19 11:40:05 15.6 34 22.3
002EF168 2019-04-19 11:08:54 15.6 34 22.1
002EF168 2019-04-19 10:37:43 15.6 34 22
002EF168 2019-04-19 10:06:32 15.6 34 21.9
002EF168 2019-04-19 09:35:21 15.7 33 21.9
002EF168 2019-04-19 09:04:10 15.6 33 21.9
002EF168 2019-04-19 08:32:58 15.7 33 22.1
002EF168 2019-04-19 08:01:47 15.7 33 22.4
002EF168 2019-04-19 07:30:35 15.8 33 22.7
002EF168 2019-04-19 06:59:23 15.7 33 22.7
002EF168 2019-04-19 06:28:11 15.8 33 22.9
002EF168 2019-04-19 05:56:59 15.8 33 22.9
002EF168 2019-04-19 05:25:48 15.8 33 22.9
002EF168 2019-04-19 04:54:36 15.8 33 23.1
002EF168 2019-04-19 04:23:24 15.8 33 23.2
002EF168 2019-04-19 03:52:13 15.9 33 23.2
002EF168 2019-04-19 03:21:02 16 33 23.4
002EF168 2019-04-19 02:49:51 16 33 23.4
002EF168 2019-04-19 02:18:41 16 33 23.6
002EF168 2019-04-19 01:47:31 16 33 23.7
002EF168 2019-04-19 01:16:20 16 33 23.6
002EF168 2019-04-19 00:45:08 16 33 23.7
002EF168 2019-04-19 00:13:57 16.2 33 23.7
002EF168 2019-04-18 23:42:46 16.2 33 23.8
002EF168 2019-04-18 23:11:34 16.2 33 24.1
002EF168 2019-04-18 22:40:24 16.2 33 24.3
002EF168 2019-04-18 22:09:12 16.2 33 24.3
002EF168 2019-04-18 21:38:01 16.2 33 24.5
002EF168 2019-04-18 21:06:49 16.2 33 24.5
002EF168 2019-04-18 20:35:37 16.2 33 24.5
002EF168 2019-04-18 20:04:25 16.2 33 24.5
002EF168 2019-04-18 19:33:13 16.2 33 24.4
002EF168 2019-04-18 18:30:50 16.2 33 23.9
002EF168 2019-04-18 17:59:39 16.2 33 23.7
002EF168 2019-04-18 17:28:28 16.2 33 23.5
002EF168 2019-04-18 16:57:16 16.2 33 23.4
002EF168 2019-04-18 16:26:05 16.2 33 23.2
002EF168 2019-04-18 15:54:55 16.2 33 22.9
002EF168 2019-04-18 15:23:44 16.1 33 22.6
002EF168 2019-04-18 14:52:34 16.1 33 22.5
002EF168 2019-04-18 14:21:23 16.1 33 22
002EF168 2019-04-18 13:50:13 16 33 21.9
002EF168 2019-04-18 13:19:02 16 33 21.4
002EF168 2019-04-18 12:47:53 16 33 20.8
002EF168 2019-04-18 12:16:42 16 33 20.8
002EF168 2019-04-18 11:45:31 16.1 33 20.3
002EF168 2019-04-18 11:14:20 16 33 20.2
002EF168 2019-04-18 10:43:08 16.2 33 19.9
002EF168 2019-04-18 10:11:58 16.1 33 18.9
002EF168 2019-04-18 09:40:47 16 32 18.1
002EF168 2019-04-18 09:09:36 16.1 32 18.1
002EF168 2019-04-18 08:38:26 16.2 32 16.9
002EF168 2019-04-18 08:07:15 16.2 32 16.8
002EF168 2019-04-18 07:36:05 16.2 32 15.9
002EF168 2019-04-18 07:04:54 16.2 32 15.8
002EF168 2019-04-18 06:33:44 16.2 32 16
002EF168 2019-04-18 06:02:34 16.2 32 16
002EF168 2019-04-18 05:31:23 16.2 32 15.9
002EF168 2019-04-18 05:00:12 16.2 32 16.4
002EF168 2019-04-18 04:29:02 16.3 32 17.2
002EF168 2019-04-18 03:57:51 16.3 32 17.9
002EF168 2019-04-18 03:26:41 16.4 32 19.7
002EF168 2019-04-18 02:55:31 16.4 31 19.9
002EF168 2019-04-18 02:24:22 16.4 31 19.9
002EF168 2019-04-18 01:53:12 16.5 31 20.1
002EF168 2019-04-18 01:22:01 16.5 31 20.2
002EF168 2019-04-18 00:50:52 16.6 31 20.3
002EF168 2019-04-18 00:19:42 16.6 32 20.4
002EF168 2019-04-17 23:48:32 16.6 32 20.5
002EF168 2019-04-17 23:17:22 16.7 32 20.6
002EF168 2019-04-17 22:46:12 16.7 32 20.8
002EF168 2019-04-17 22:15:03 16.8 32 20.7
002EF168 2019-04-17 21:43:53 16.8 32 20.8
002EF168 2019-04-17 21:12:44 16.8 31 21
002EF168 2019-04-17 20:41:34 16.8 31 21
002EF168 2019-04-17 20:10:23 16.8 31 21
002EF168 2019-04-17 19:39:14 16.8 31 21.4
002EF168 2019-04-17 19:08:05 16.8 31 21.5
002EF168 2019-04-17 18:36:57 16.8 31 21.6
002EF168 2019-04-17 18:05:45 16.9 31 21.7
002EF168 2019-04-17 17:34:35 16.8 31 21.8
002EF168 2019-04-17 17:03:25 16.9 31 21.9
002EF168 2019-04-17 16:32:17 17 31 22
002EF168 2019-04-17 16:01:08 17.1 30 22.9
002EF168 2019-04-17 15:29:59 17.1 30 22.8
002EF168 2019-04-17 14:58:51 17.1 30 22.7
002EF168 2019-04-17 14:27:41 17.2 31 22
002EF168 2019-04-17 13:56:32 17.3 31 22
002EF168 2019-04-17 13:25:22 17.3 31 22.2
002EF168 2019-04-17 12:54:12 17.4 30 22.2
002EF168 2019-04-17 12:23:03 17.4 30 22.3
002EF168 2019-04-17 11:51:52 17.4 30 22.4
002EF168 2019-04-17 11:20:41 17.5 30 22.4
002EF168 2019-04-17 10:49:31 17.5 30 22.4
002EF168 2019-04-17 10:18:20 17.5 29 22.4
002EF168 2019-04-17 09:47:09 17.5 29 22.3
002EF168 2019-04-17 09:15:59 17.6 29 22.3
002EF168 2019-04-17 08:44:49 17.7 29 22.3
002EF168 2019-04-17 08:13:39 17.8 29 22.1
002EF168 2019-04-17 07:42:29 17.9 29 22.1
002EF168 2019-04-17 07:11:19 17.9 29 22.2
002EF168 2019-04-17 06:40:08 18.1 29 22
002EF168 2019-04-17 06:08:58 18.1 29 22.2
002EF168 2019-04-17 05:37:48 18.2 29 22.3
002EF168 2019-04-17 05:06:38 18.2 29 22.4
002EF168 2019-04-17 04:35:28 18.3 28 22.6
002EF168 2019-04-17 04:04:16 18.3 28 23
002EF168 2019-04-17 03:33:06 18.3 28 22.9
002EF168 2019-04-17 03:01:57 18.5 28 22
002EF168 2019-04-17 02:30:49 18.5 28 21.9
002EF168 2019-04-17 01:59:40 18.6 28 21.7
002EF168 2019-04-17 01:28:32 18.6 28 21.6
002EF168 2019-04-17 00:57:24 18.7 28 21.4
002EF168 2019-04-17 00:26:16 18.8 27 21.3
002EF168 2019-04-16 23:55:08 18.8 27 21.1
002EF168 2019-04-16 23:23:58 18.8 27 22.1
002EF168 2019-04-16 22:52:49 19 26 22.1
002EF168 2019-04-16 22:21:40 19.1 27 21.9
002EF168 2019-04-16 21:50:29 19.2 27 21.9
002EF168 2019-04-16 21:19:20 19.3 27 21.8
002EF168 2019-04-16 20:48:10 19.5 27 21.8
002EF168 2019-04-16 20:17:03 19.4 27 21.7
002EF168 2019-04-16 19:45:54 19.5 27 21.6
002EF168 2019-04-16 19:14:45 19.6 26 21.6
002EF168 2019-04-16 18:43:37 19.6 26 21.6
002EF168 2019-04-16 18:12:28 19.7 26 21.5
002EF168 2019-04-16 16:39:01 20 25 21.4
002EF168 2019-04-16 16:07:52 20.1 25 21.1
002EF168 2019-04-16 15:36:42 20.2 25 20.8
002EF168 2019-04-16 15:05:32 20.5 26 20.4
002EF168 2019-04-16 14:34:23 20.5 26 19.9
002EF168 2019-04-16 14:03:14 20.7 26 18.9
002EF168 2019-04-16 13:32:04 20.7 27 18.9
002EF168 2019-04-16 13:00:55 20.6 27 18.6
002EF168 2019-04-16 12:29:46 20.6 27 18.6
002EF168 2019-04-16 11:58:38 20.5 27 18.7
002EF168 2019-04-16 11:27:30 20.5 28 18.7
002EF168 2019-04-16 10:56:21 20.5 28 18.7
002EF168 2019-04-16 10:25:10 20.5 28 18.7
002EF168 2019-04-16 09:54:03 20.5 28 18.7
002EF168 2019-04-16 09:22:53 20.5 28 15.5
002EF168 2019-04-16 08:51:44 20.5 28 14.7
002EF168 2019-04-16 08:20:38 20.5 28 14.8
002EF168 2019-04-16 07:49:27 20.5 28 14.8
002EF168 2019-04-16 07:18:23 20.5 28 14.9
002EF168 2019-04-16 06:47:10 20.5 28 14.9
002EF168 2019-04-16 06:16:01 20.5 28 14.9
002EF168 2019-04-16 05:44:52 20.5 28 14.8
002EF168 2019-04-16 05:13:43 20.5 28 14.7
002EF168 2019-04-16 04:42:35 20.5 28 14.5
002EF168 2019-04-16 04:11:26 20.5 28 14.6
002EF168 2019-04-16 03:40:17 20.5 27 14.9
002EF168 2019-04-16 03:09:06 20.5 27 14.9
002EF168 2019-04-16 02:37:58 20.5 27 14.7
002EF168 2019-04-16 02:06:48 20.5 27 14.6
002EF168 2019-04-16 01:35:38 20.5 27 14.5
002EF168 2019-04-16 01:04:30 20.5 27 17
002EF168 2019-04-16 00:33:20 20.5 27 18.3
002EF168 2019-04-16 00:02:07 20.5 27 19.6
002EF168 2019-04-15 23:30:57 20.5 27 20.4
002EF168 2019-04-15 22:59:47 20.5 27 21.1
002EF168 2019-04-15 22:28:37 20.6 26 21.5
002EF168 2019-04-15 21:57:27 20.7 26 22.2
002EF168 2019-04-15 21:26:18 20.7 26 22.8
002EF168 2019-04-15 20:55:09 20.7 26 23.6
002EF168 2019-04-15 20:23:58 20.7 26 23.9
002EF168 2019-04-15 19:52:50 20.7 25 24.1
002EF168 2019-04-15 19:21:39 20.7 25 24.2
002EF168 2019-04-15 18:50:30 20.7 25 24.5
002EF168 2019-04-15 18:19:20 20.7 25 24.8
002EF168 2019-04-15 17:48:12 20.8 25 25.1
002EF168 2019-04-15 17:17:03 20.9 24 25.4
002EF168 2019-04-15 16:45:54 21 24 25.6
002EF168 2019-04-15 16:14:45 21 24 25.9
002EF168 2019-04-15 15:43:36 21.1 23 26
002EF168 2019-04-15 15:12:27 21.1 23 26.3
002EF168 2019-04-15 14:41:18 21.2 22 26.4
002EF168 2019-04-15 14:10:08 21.4 22 26.5
002EF168 2019-04-15 13:39:01 21.6 21 26.8
002EF168 2019-04-15 13:07:50 21.8 20 27
002EF168 2019-04-15 12:36:40 22 19 27.3
002EF168 2019-04-15 12:05:32 22.2 17 27.2
002EF168 2019-04-15 11:34:23 22.2 16 27.3
002EF168 2019-04-15 11:03:15 22.2 17 27.3
002EF168 2019-04-15 10:32:05 22.1 17 27.4
002EF168 2019-04-15 10:00:56 22 18 27.4
002EF168 2019-04-15 09:29:46 22 18 27.6
002EF168 2019-04-15 08:58:37 21.8 18 27.5
002EF168 2019-04-15 08:27:28 21.8 18 27.5
002EF168 2019-04-15 07:56:19 21.7 17 27.2
002EF168 2019-04-15 07:25:09 21.7 18 27.2
002EF168 2019-04-15 06:54:00 21.7 18 27.2
002EF168 2019-04-15 06:22:51 21.6 18 27.3
002EF168 2019-04-15 05:51:43 21.5 18 27.3
002EF168 2019-04-15 05:20:32 21.6 18 27.3
002EF168 2019-04-15 04:49:24 21.6 18 27.2
002EF168 2019-04-15 04:18:14 21.6 18 27.1
002EF168 2019-04-15 03:47:05 21.6 18 27.3
002EF168 2019-04-15 03:15:57 21.6 18 27.2
002EF168 2019-04-15 02:44:49 21.6 18 27.3
002EF168 2019-04-15 02:13:40 21.6 18 27.2
002EF168 2019-04-15 01:42:32 21.5 18 27.3
002EF168 2019-04-15 01:11:24 21.5 18 27.4
002EF168 2019-04-15 00:40:16 21.6 19 27.3
002EF168 2019-04-15 00:09:08 21.5 18 27.4
002EF168 2019-04-14 23:37:59 21.6 19 27.4
002EF168 2019-04-14 23:06:52 21.6 19 27.4
002EF168 2019-04-14 22:35:44 21.6 19 27.4
002EF168 2019-04-14 22:04:35 21.7 19 27.3
002EF168 2019-04-14 21:33:27 21.8 19 27.3
002EF168 2019-04-14 21:02:19 21.8 19 27.2
002EF168 2019-04-14 20:31:12 21.8 19 27
002EF168 2019-04-14 20:00:03 22 19 27
002EF168 2019-04-14 19:28:54 21.9 19 27
002EF168 2019-04-14 18:57:45 22 19 27.1
002EF168 2019-04-14 18:26:36 22 19 27.2
002EF168 2019-04-14 17:55:28 21.8 19 27.2
002EF168 2019-04-14 17:24:18 21.8 19 27.2
002EF168 2019-04-14 16:53:09 21.8 19 27.1
002EF168 2019-04-14 16:22:00 21.7 19 27.3
002EF168 2019-04-14 15:50:51 21.8 19 27.4
002EF168 2019-04-14 15:19:43 21.7 19 27.3
002EF168 2019-04-14 14:48:33 21.8 19 27.2
002EF168 2019-04-14 14:17:24 21.8 19 27.3
002EF168 2019-04-14 13:46:15 21.8 19 27.5
002EF168 2019-04-14 13:15:06 21.8 19 27.5
002EF168 2019-04-14 12:43:57 21.7 19 27.5
002EF168 2019-04-14 12:12:47 21.8 19 27.4
002EF168 2019-04-14 11:41:38 21.8 19 27.5
002EF168 2019-04-14 11:10:28 21.8 19 27.3
002EF168 2019-04-14 10:39:19 21.8 19 27.3
002EF168 2019-04-14 10:08:09 21.8 19 27.2
002EF168 2019-04-14 09:37:00 21.8 19 27.2
002EF168 2019-04-14 09:05:50 21.7 19 27.1
002EF168 2019-04-14 08:34:41 21.7 19 27.2
002EF168 2019-04-14 08:03:32 21.6 19 27.1
002EF168 2019-04-14 07:32:22 21.6 19 27.1
002EF168 2019-04-14 07:01:12 21.7 19 27.3
002EF168 2019-04-14 06:30:03 21.6 19 27.3
002EF168 2019-04-14 05:58:53 21.6 18 27.4
002EF168 2019-04-14 05:27:44 21.7 19 27.5
002EF168 2019-04-14 04:56:34 21.6 19 27.5
002EF168 2019-04-14 04:25:25 21.6 18 27.7
002EF168 2019-04-14 03:54:15 21.7 18 27.8
002EF168 2019-04-14 03:23:05 21.8 19 27.6
002EF168 2019-04-14 02:51:55 21.8 19 27.6
002EF168 2019-04-14 02:20:45 21.7 19 27.8
002EF168 2019-04-14 01:49:36 21.7 19 27.7
002EF168 2019-04-14 01:18:26 21.7 19 27.7
002EF168 2019-04-14 00:47:18 21.8 19 27.5
002EF168 2019-04-14 00:16:08 21.8 19 27.5
002EF168 2019-04-13 23:44:59 21.8 19 27.4
002EF168 2019-04-13 23:13:49 21.8 18 27.3
002EF168 2019-04-13 22:42:40 21.8 18 27.2
002EF168 2019-04-13 22:11:30 21.8 18 27.3
002EF168 2019-04-13 21:40:19 21.8 18 27.4
002EF168 2019-04-13 21:09:09 21.8 18 27.4
002EF168 2019-04-13 20:37:59 21.8 18 27.4
002EF168 2019-04-13 20:06:50 21.9 18 27.5
002EF168 2019-04-13 19:35:41 21.9 18 27.5
002EF168 2019-04-13 19:04:30 22 18 27.6
002EF168 2019-04-13 18:33:20 22 18 27.7
002EF168 2019-04-13 18:02:09 22 18 27.6
002EF168 2019-04-13 17:30:59 22 18 27.7
002EF168 2019-04-13 16:59:48 22 18 27.7
002EF168 2019-04-13 16:28:40 22 18 27.6
002EF168 2019-04-13 15:57:30 22.1 18 27.6
002EF168 2019-04-13 15:26:21 22.2 18 27.5
002EF168 2019-04-13 14:55:11 22.2 18 27.4
002EF168 2019-04-13 14:24:01 22.1 18 27.4
002EF168 2019-04-13 13:52:50 22.2 18 27.4
002EF168 2019-04-13 13:21:40 22.2 18 27.2
002EF168 2019-04-13 12:50:31 22.2 18 27.2
002EF168 2019-04-13 12:19:20 22.2 18 27.2
002EF168 2019-04-13 11:48:10 22.2 18 27.4
002EF168 2019-04-13 11:17:00 22.2 18 27.4
002EF168 2019-04-13 10:45:50 22.2 18 27.5
002EF168 2019-04-13 10:14:38 22.2 18 27.5
002EF168 2019-04-13 09:43:28 22.2 18 27.5
002EF168 2019-04-13 09:12:18 22.2 18 27.4
002EF168 2019-04-13 08:41:09 22.2 18 27.4
002EF168 2019-04-13 08:10:00 22.2 18 27.4
002EF168 2019-04-13 07:38:50 22.2 18 27.4
002EF168 2019-04-13 07:07:41 22.1 18 27.5
002EF168 2019-04-13 06:36:32 22.2 18 27.4
002EF168 2019-04-13 06:05:22 22.2 18 27.3
002EF168 2019-04-13 05:34:13 22.2 18 27.1
002EF168 2019-04-13 05:03:05 22.2 18 27.2
002EF168 2019-04-13 04:31:56 22.2 18 27.2
002EF168 2019-04-13 04:00:46 22.1 18 27.2
002EF168 2019-04-13 03:29:37 22.2 18 27.4
002EF168 2019-04-13 02:58:27 22.2 18 27.5
002EF168 2019-04-13 02:27:19 22.2 18 27.5
002EF168 2019-04-13 01:56:09 22.2 18 27.5
002EF168 2019-04-13 01:24:59 22.3 18 27.5
002EF168 2019-04-13 00:53:50 22.3 18 27.6
002EF168 2019-04-13 00:22:40 22.3 18 27.7
002EF168 2019-04-12 23:51:30 22.3 19 27.6
002EF168 2019-04-12 23:20:21 22.4 19 27.7
002EF168 2019-04-12 22:49:11 22.4 19 27.6
002EF168 2019-04-12 22:18:02 22.4 19 27.7
002EF168 2019-04-12 21:46:52 22.5 19 27.7
002EF168 2019-04-12 21:15:42 22.6 19 27.7
002EF168 2019-04-12 20:44:31 22.6 19 27.8
002EF168 2019-04-12 20:13:21 22.6 18 27.8
002EF168 2019-04-12 19:42:12 22.6 18 27.8
002EF168 2019-04-12 19:11:02 22.6 18 27.9
002EF168 2019-04-12 18:39:53 22.6 17 28
002EF168 2019-04-12 18:08:44 22.8 17 28
002EF168 2019-04-12 17:37:34 22.8 17 28.1
002EF168 2019-04-12 17:06:24 23 17 28.3
002EF168 2019-04-12 16:35:14 23 18 28.6
002EF168 2019-04-12 16:04:03 23 18 28.5
002EF168 2019-04-12 15:32:54 22.9 18 28.7
002EF168 2019-04-12 15:01:44 22.8 18 28.3
002EF168 2019-04-12 14:30:34 22.8 18 27.6
002EF168 2019-04-12 13:59:23 22.5 18 25.5
002EF168 2019-04-12 13:28:12 21.9 19 26.5
002EF168 2019-04-12 12:57:02 20.3 28 0